Time,TemperatureF,DewpointF,PressureIn,WindDirection,WindDirectionDegrees,WindSpeedMPH,WindSpeedGustMPH,Humidity,HourlyPrecipIn,Conditions,Clouds,dailyrainin,SolarRadiationWatts/m^2,SoftwareType,DateUTC
2013-03-22 00:12:00,45.9,43.0,30.05,North,-999,0.0,0.0,88,0.00,,,0.00,0,weatherlink.com 1.10,2013-03-22 07:12:00,
2013-03-22 00:27:00,45.6,42.0,30.05,North,-999,0.0,0.0,87,0.00,,,0.00,0,weatherlink.com 1.10,2013-03-22 07:27:00,
2013-03-22 00:42:00,45.4,42.0,30.05,North,-999,0.0,0.0,86,0.00,,,0.00,0,weatherlink.com 1.10,2013-03-22 07:42:00,
2013-03-22 00:57:00,46.4,42.0,30.04,North,-999,0.0,0.0,83,0.00,,,0.00,0,weatherlink.com 1.10,2013-03-22 07:57:00,
2013-03-22 01:12:00,47.1,41.0,30.04,North,-999,0.0,0.0,80,0.00,,,0.00,0,weatherlink.com 1.10,2013-03-22 08:12:00,
2013-03-22 01:27:00,47.1,41.0,30.05,North,-999,0.0,0.0,80,0.00,,,0.00,0,weatherlink.com 1.10,2013-03-22 08:27:00,
2013-03-22 01:42:00,46.5,41.0,30.05,North,-999,0.0,0.0,81,0.00,,,0.00,0,weatherlink.com 1.10,2013-03-22 08:42:00,
2013-03-22 01:57:00,46.2,41.0,30.05,North,-999,0.0,0.0,82,0.00,,,0.00,0,weatherlink.com 1.10,2013-03-22 08:57:00,
2013-03-22 02:12:00,46.1,41.0,30.05,North,360,0.0,0.0,82,0.00,,,0.00,0,weatherlink.com 1.10,2013-03-22 09:12:00,
2013-03-22 02:27:00,46.3,41.0,30.04,North,360,0.0,0.0,82,0.00,,,0.00,0,weatherlink.com 1.10,2013-03-22 09:27:00,
2013-03-22 02:42:00,46.4,41.0,30.05,North,360,0.0,0.0,82,0.00,,,0.00,0,weatherlink.com 1.10,2013-03-22 09:42:00,
2013-03-22 02:57:00,46.6,40.0,30.05,North,-999,0.0,0.0,79,0.00,,,0.00,0,weatherlink.com 1.10,2013-03-22 09:57:00,
2013-03-22 03:12:00,46.5,40.0,30.04,North,360,0.0,0.0,77,0.00,,,0.00,0,weatherlink.com 1.10,2013-03-22 10:12:00,
2013-03-22 03:27:00,46.0,41.0,30.04,North,-999,0.0,0.0,81,0.00,,,0.00,0,weatherlink.com 1.10,2013-03-22 10:27:00,
2013-03-22 03:45:00,45.4,40.0,30.05,North,-999,0.0,0.0,82,0.00,,,0.00,0,weatherlink.com 1.10,2013-03-22 10:45:00,
2013-03-22 03:57:00,45.1,40.0,30.05,North,-999,0.0,0.0,82,0.00,,,0.00,0,weatherlink.com 1.10,2013-03-22 10:57:00,
2013-03-22 04:12:00,44.8,40.0,30.05,North,-999,0.0,0.0,83,0.00,,,0.00,0,weatherlink.com 1.10,2013-03-22 11:12:00,
2013-03-22 04:27:00,44.6,40.0,30.04,North,-999,0.0,0.0,83,0.00,,,0.00,0,weatherlink.com 1.10,2013-03-22 11:27:00,
2013-03-22 04:42:00,45.0,39.0,30.04,North,-999,0.0,0.0,80,0.00,,,0.00,0,weatherlink.com 1.10,2013-03-22 11:42:00,
2013-03-22 04:57:00,45.5,39.0,30.04,North,-999,0.0,0.0,78,0.00,,,0.00,0,weatherlink.com 1.10,2013-03-22 11:57:00,
2013-03-22 05:12:00,45.8,39.0,30.04,North,360,0.0,0.0,77,0.00,,,0.00,0,weatherlink.com 1.10,2013-03-22 12:12:00,
2013-03-22 05:27:00,45.8,39.0,30.04,North,360,0.0,0.0,77,0.00,,,0.00,0,weatherlink.com 1.10,2013-03-22 12:27:00,
2013-03-22 05:42:00,46.4,38.0,30.04,North,360,0.0,0.0,73,0.00,,,0.00,0,weatherlink.com 1.10,2013-03-22 12:42:00,
2013-03-22 05:57:00,46.2,38.0,30.04,North,360,0.0,0.0,73,0.00,,,0.00,0,weatherlink.com 1.10,2013-03-22 12:57:00,
2013-03-22 06:12:00,46.0,37.0,30.04,North,360,0.0,0.0,71,0.00,,,0.00,0,weatherlink.com 1.10,2013-03-22 13:12:00,
2013-03-22 06:28:00,46.1,37.0,30.05,North,360,0.0,0.0,71,0.00,,,0.00,0,weatherlink.com 1.10,2013-03-22 13:28:00,
2013-03-22 06:43:00,46.4,37.0,30.05,North,360,0.0,0.0,70,0.00,,,0.00,0,weatherlink.com 1.10,2013-03-22 13:43:00,
2013-03-22 06:58:00,46.5,38.0,30.05,North,360,0.0,0.0,72,0.00,,,0.00,0,weatherlink.com 1.10,2013-03-22 13:58:00,
2013-03-22 07:13:00,46.5,35.0,30.05,North,-999,0.0,0.0,65,0.00,,,0.00,0,weatherlink.com 1.10,2013-03-22 14:13:00,
2013-03-22 07:28:00,46.7,34.0,30.06,North,-999,0.0,0.0,62,0.00,,,0.00,12,weatherlink.com 1.10,2013-03-22 14:28:00,
2013-03-22 07:43:00,47.1,33.0,30.07,North,-999,0.0,0.0,59,0.00,,,0.00,26,weatherlink.com 1.10,2013-03-22 14:43:00,
2013-03-22 07:58:00,46.9,34.0,30.07,North,-999,0.0,0.0,61,0.00,,,0.00,40,weatherlink.com 1.10,2013-03-22 14:58:00,
2013-03-22 08:13:00,47.0,33.0,30.07,North,-999,0.0,0.0,59,0.00,,,0.00,51,weatherlink.com 1.10,2013-03-22 15:13:00,
2013-03-22 08:28:00,47.6,33.0,30.08,North,-999,0.0,0.0,58,0.00,,,0.00,127,weatherlink.com 1.10,2013-03-22 15:28:00,
2013-03-22 08:43:00,48.3,33.0,30.08,North,-999,0.0,0.0,56,0.00,,,0.00,174,weatherlink.com 1.10,2013-03-22 15:43:00,
2013-03-22 08:58:00,49.1,32.0,30.09,North,360,0.0,0.0,53,0.00,,,0.00,188,weatherlink.com 1.10,2013-03-22 15:58:00,
2013-03-22 09:13:00,49.9,31.0,30.09,North,360,0.0,0.0,49,0.00,,,0.00,193,weatherlink.com 1.10,2013-03-22 16:13:00,
2013-03-22 09:28:00,50.9,30.0,30.10,North,-999,0.0,0.0,45,0.00,,,0.00,339,weatherlink.com 1.10,2013-03-22 16:28:00,
2013-03-22 09:43:00,52.2,28.0,30.10,North,-999,0.0,0.0,40,0.00,,,0.00,445,weatherlink.com 1.10,2013-03-22 16:43:00,
2013-03-22 09:58:00,52.8,28.0,30.11,North,-999,0.0,0.0,38,0.00,,,0.00,494,weatherlink.com 1.10,2013-03-22 16:58:00,
2013-03-22 10:13:00,53.9,29.0,30.11,North,360,0.0,0.0,38,0.00,,,0.00,541,weatherlink.com 1.10,2013-03-22 17:13:00,
2013-03-22 10:28:00,54.8,32.0,30.11,North,360,0.0,0.0,43,0.00,,,0.00,585,weatherlink.com 1.10,2013-03-22 17:28:00,
2013-03-22 10:43:00,55.1,32.0,30.11,North,-999,0.0,0.0,42,0.00,,,0.00,624,weatherlink.com 1.10,2013-03-22 17:43:00,
2013-03-22 10:59:00,55.6,33.0,30.12,North,-999,0.0,0.0,43,0.00,,,0.00,666,weatherlink.com 1.10,2013-03-22 17:59:00,
2013-03-22 11:14:00,56.0,34.0,30.12,North,-999,0.0,0.0,44,0.00,,,0.00,705,weatherlink.com 1.10,2013-03-22 18:14:00,
2013-03-22 11:29:00,56.7,37.0,30.12,North,-999,0.0,0.0,48,0.00,,,0.00,733,weatherlink.com 1.10,2013-03-22 18:29:00,
2013-03-22 11:44:00,57.4,38.0,30.12,North,360,0.0,0.0,48,0.00,,,0.00,737,weatherlink.com 1.10,2013-03-22 18:44:00,
2013-03-22 11:59:00,57.1,38.0,30.12,North,360,0.0,0.0,50,0.00,,,0.00,775,weatherlink.com 1.10,2013-03-22 18:59:00,
2013-03-22 12:14:00,57.4,38.0,30.12,North,360,0.0,0.0,48,0.00,,,0.00,795,weatherlink.com 1.10,2013-03-22 19:14:00,
2013-03-22 12:29:00,58.2,38.0,30.12,North,360,0.0,0.0,48,0.00,,,0.00,805,weatherlink.com 1.10,2013-03-22 19:29:00,
2013-03-22 12:44:00,58.4,39.0,30.11,North,360,0.0,0.0,48,0.00,,,0.00,812,weatherlink.com 1.10,2013-03-22 19:44:00,
2013-03-22 12:59:00,58.5,39.0,30.11,North,360,0.0,0.0,48,0.00,,,0.00,812,weatherlink.com 1.10,2013-03-22 19:59:00,
2013-03-22 13:14:00,58.1,38.0,30.11,North,360,0.0,0.0,48,0.00,,,0.00,814,weatherlink.com 1.10,2013-03-22 20:14:00,
2013-03-22 13:29:00,57.9,39.0,30.10,North,360,0.0,0.0,49,0.00,,,0.00,809,weatherlink.com 1.10,2013-03-22 20:29:00,
2013-03-22 13:44:00,57.2,37.0,30.10,North,-999,0.0,0.0,48,0.00,,,0.00,800,weatherlink.com 1.10,2013-03-22 20:44:00,
2013-03-22 13:59:00,56.7,38.0,30.09,North,-999,0.0,0.0,50,0.00,,,0.00,786,weatherlink.com 1.10,2013-03-22 20:59:00,
2013-03-22 14:14:00,55.6,38.0,30.09,North,-999,0.0,0.0,51,0.00,,,0.00,97,weatherlink.com 1.10,2013-03-22 21:14:00,
2013-03-22 14:29:00,55.0,39.0,30.08,North,-999,0.0,0.0,55,0.00,,,0.00,63,weatherlink.com 1.10,2013-03-22 21:29:00,
2013-03-22 14:44:00,54.0,39.0,30.08,North,360,0.0,0.0,57,0.00,,,0.00,104,weatherlink.com 1.10,2013-03-22 21:44:00,
2013-03-22 14:59:00,54.0,39.0,30.07,North,360,0.0,0.0,58,0.00,,,0.00,62,weatherlink.com 1.10,2013-03-22 21:59:00,
2013-03-22 15:14:00,54.2,40.0,30.07,North,360,0.0,0.0,60,0.00,,,0.00,58,weatherlink.com 1.10,2013-03-22 22:14:00,
2013-03-22 15:29:00,54.5,41.0,30.07,North,-999,0.0,0.0,60,0.00,,,0.00,47,weatherlink.com 1.10,2013-03-22 22:29:00,
2013-03-22 15:59:00,54.1,40.0,30.06,North,-999,0.0,0.0,59,0.00,,,0.00,40,weatherlink.com 1.10,2013-03-22 22:59:00,
2013-03-22 16:14:00,53.8,40.0,30.06,North,360,0.0,0.0,59,0.00,,,0.00,39,weatherlink.com 1.10,2013-03-22 23:14:00,
2013-03-22 16:29:00,53.9,40.0,30.06,North,360,0.0,0.0,60,0.00,,,0.00,39,weatherlink.com 1.10,2013-03-22 23:29:00,
2013-03-22 16:44:00,53.2,42.0,30.05,North,360,0.0,0.0,65,0.00,,,0.00,44,weatherlink.com 1.10,2013-03-22 23:44:00,
2013-03-22 16:59:00,53.3,41.0,30.05,North,360,0.0,0.0,64,0.00,,,0.00,37,weatherlink.com 1.10,2013-03-22 23:59:00,
2013-03-22 17:14:00,53.6,42.0,30.05,North,-999,0.0,0.0,64,0.00,,,0.00,58,weatherlink.com 1.10,2013-03-23 00:14:00,
2013-03-22 17:29:00,53.6,42.0,30.05,North,-999,0.0,0.0,64,0.00,,,0.00,32,weatherlink.com 1.10,2013-03-23 00:29:00,
2013-03-22 17:44:00,53.3,43.0,30.05,North,-999,0.0,0.0,68,0.00,,,0.00,26,weatherlink.com 1.10,2013-03-23 00:44:00,
2013-03-22 17:59:00,52.2,43.0,30.05,North,-999,0.0,0.0,70,0.00,,,0.00,25,weatherlink.com 1.10,2013-03-23 00:59:00,
2013-03-22 18:14:00,51.3,43.0,30.04,North,360,0.0,0.0,73,0.00,,,0.00,23,weatherlink.com 1.10,2013-03-23 01:14:00,
2013-03-22 18:29:00,50.6,43.0,30.03,North,360,0.0,0.0,74,0.00,,,0.00,19,weatherlink.com 1.10,2013-03-23 01:29:00,
2013-03-22 18:44:00,50.5,43.0,30.04,North,360,0.0,0.0,75,0.00,,,0.00,16,weatherlink.com 1.10,2013-03-23 01:44:00,
2013-03-22 18:59:00,50.4,43.0,30.04,North,-999,0.0,0.0,75,0.00,,,0.00,11,weatherlink.com 1.10,2013-03-23 01:59:00,
2013-03-22 19:14:00,50.3,42.0,30.04,North,-999,0.0,0.0,74,0.00,,,0.00,7,weatherlink.com 1.10,2013-03-23 02:14:00,
2013-03-22 19:29:00,50.1,42.0,30.04,North,-999,0.0,0.0,74,0.00,,,0.00,0,weatherlink.com 1.10,2013-03-23 02:29:00,
2013-03-22 19:44:00,49.7,41.0,30.05,North,-999,0.0,0.0,73,0.00,,,0.00,0,weatherlink.com 1.10,2013-03-23 02:44:00,
2013-03-22 19:59:00,49.3,43.0,30.05,North,360,0.0,0.0,78,0.00,,,0.00,0,weatherlink.com 1.10,2013-03-23 02:59:00,
2013-03-22 20:14:00,48.7,42.0,30.05,North,360,0.0,0.0,79,0.00,,,0.00,0,weatherlink.com 1.10,2013-03-23 03:14:00,
2013-03-22 20:29:00,48.3,42.0,30.06,North,360,0.0,0.0,79,0.00,,,0.00,0,weatherlink.com 1.10,2013-03-23 03:29:00,
2013-03-22 20:44:00,47.8,42.0,30.06,North,-999,0.0,0.0,79,0.00,,,0.00,0,weatherlink.com 1.10,2013-03-23 03:44:00,
2013-03-22 20:59:00,47.6,42.0,30.07,North,-999,0.0,0.0,80,0.00,,,0.00,0,weatherlink.com 1.10,2013-03-23 03:59:00,
2013-03-22 21:14:00,47.2,42.0,30.07,North,-999,0.0,0.0,81,0.00,,,0.00,0,weatherlink.com 1.10,2013-03-23 04:14:00,
2013-03-22 21:29:00,46.8,42.0,30.07,North,-999,0.0,0.0,83,0.00,,,0.00,0,weatherlink.com 1.10,2013-03-23 04:29:00,
2013-03-22 21:44:00,46.3,42.0,30.07,North,360,0.0,0.0,85,0.00,,,0.00,0,weatherlink.com 1.10,2013-03-23 04:44:00,
2013-03-22 21:59:00,46.2,42.0,30.07,North,360,0.0,0.0,85,0.00,,,0.00,0,weatherlink.com 1.10,2013-03-23 04:59:00,
2013-03-22 22:14:00,46.0,42.0,30.07,North,360,0.0,0.0,87,0.00,,,0.00,0,weatherlink.com 1.10,2013-03-23 05:14:00,
2013-03-22 22:29:00,45.7,42.0,30.07,North,-999,0.0,0.0,88,0.00,,,0.00,0,weatherlink.com 1.10,2013-03-23 05:29:00,
2013-03-22 22:45:00,45.7,42.0,30.08,North,-999,0.0,0.0,85,0.00,,,0.00,0,weatherlink.com 1.10,2013-03-23 05:45:00,
2013-03-22 22:59:00,46.2,42.0,30.08,North,-999,0.0,0.0,84,0.00,,,0.00,0,weatherlink.com 1.10,2013-03-23 05:59:00,
2013-03-22 23:14:00,46.3,42.0,30.08,North,-999,0.0,0.0,85,0.00,,,0.00,0,weatherlink.com 1.10,2013-03-23 06:14:00,
2013-03-22 23:29:00,46.0,43.0,30.08,North,360,0.0,0.0,88,0.00,,,0.00,0,weatherlink.com 1.10,2013-03-23 06:29:00,
2013-03-22 23:44:00,45.7,42.0,30.08,North,-999,0.0,0.0,86,0.00,,,0.00,0,weatherlink.com 1.10,2013-03-23 06:44:00,
2013-03-22 23:59:00,45.6,41.0,30.08,North,360,0.0,0.0,85,0.00,,,0.00,0,weatherlink.com 1.10,2013-03-23 06:59:00,